Location: Unspecified
(40.7945°N, 0.0000°E)
Time: 20:48:21
(UTC+00:00)

Explorer 7 - Pass Details

Date: 23 June 2021
Orbit: 484 x 676 km, 50.3° (Epoch: 30 July)

Event Time Altitude Azimuth Distance (km) Brightness Sun altitude
Rises 22:30:18 0° 292° (WNW) 3,025 11.3 -22.3°
Reaches altitude 10° 22:33:03 10° 305° (NW) 2,102 10.5 -22.5°
Maximum altitude 22:37:07 26° 2° (N) 1,303 9.3 -22.8°
Drops below altitude 10° 22:41:05 10° 59° (ENE) 2,040 9.8 -23.1°
Sets 22:43:41 0° 72° (ENE) 2,918 10.5 -23.2°
